Simultaneous Nadir Overpasses (SNOs) Predictions

Prediction of SNOs between AQUA and NPP Satellite Orbit:

Table of predicted SNOs for the next 14.0 days since TLE Epoch: 2/10/2024
Index Date (AQUA) Time (AQUA) Lat,Lon (AQUA) SZA (AQUA ) Date (NPP) Time (NPP) Lat,Lon (NPP) SZA (NPP ) Distance(km) Time Diff (sec)
1 02/10/2024 13:19:10 81.08,-101.38 103.47 02/10/2024 13:18:20 81.08,-101.54 103.53 2.77 50
2 02/10/2024 14:08:32 -81.11, 66.69 76.61 02/10/2024 14:09:03 -81.11, 66.60 76.61 1.57 31
3 02/13/2024 03:02:53 -81.10,-126.99 77.42 02/13/2024 03:02:58 -81.10,-127.05 77.41 1.10 5
4 02/15/2024 15:57:12 -81.11, 39.55 78.29 02/15/2024 15:56:52 -81.11, 39.61 78.29 1.18 20
5 02/15/2024 16:46:33 81.14,-152.18 101.62 02/15/2024 16:47:34 81.14,-152.09 101.56 1.68 61
6 02/18/2024 04:51:30 -81.10,-154.09 79.16 02/18/2024 04:50:47 -81.10,-154.17 79.12 1.41 43
7 02/18/2024 05:40:51 81.13, 14.15 100.75 02/18/2024 05:41:29 81.13, 14.12 100.73 0.70 38
8 02/20/2024 17:45:47 -81.08, 12.12 80.02 02/20/2024 17:44:42 -81.08, 11.99 79.96 2.28 65
9 02/20/2024 18:35:08 81.12,-179.69 99.89 02/20/2024 18:35:24 81.12,-179.74 99.89 0.88 16
10 02/23/2024 07:29:23 81.11, -13.31 98.98 02/23/2024 07:29:18 81.11, -13.29 98.98 0.73 5



Historial Predications of SNOs between AQUA and NPP
